Weather in Zemlyanaya

Russia / Tyumen Oblast     56°12′47″N   68°27′32″E
temp.,
°C
wind,
m/s
gust,
m/s
humid.,
%
clouds,
%
prec.,
mm/h
press.,
hPa
HPBL,
m
17 may, mon
mon1723:00+21s33555 0.0 101628
02:00+19wsw485215 0.0 1016104
05:00+17w485585 0.0 1016130
08:00+24w584117 0.0 1016319
11:00+29wnw710285 0.0 10152406
14:00+30wnw811255 0.0 10153453
17:00+30w710260 0.0 10133062
20:00+26wsw6143743 0.0 1012384
18 may, tue
tue1823:00+18n367097 0.1 1014166
02:00+16wsw3774100 0.0 1012124
05:00+16w377280 0.0 1012122
08:00+21w4760100 0.1 1012405
11:00+25nw674536 0.1 10101983
14:00+25nw81038100 0.6 10102896
17:00+21nnw1011557 1.1 10121539
20:00+14n91278100 0.0 1015798
19 may, wed
wed1923:00+12nne71076100 0.0 10181009
02:00+10nne711757 0.0 1019767
05:00+8n512793 0.0 1021501
08:00+12nne69550 0.0 10231159
11:00+16nne57376 0.0 10231613
14:00+18n56315 0.0 10231915
17:00+18n56335 0.0 10231914
20:00+15n22495 0.0 102319
20 may, thu
thu2023:00+11nne22567 0.0 102411
02:00+10wsw115782 0.0 102310
05:00+10wsw356221 0.0 102380
08:00+16w594662 0.0 1022516
11:00+21wnw793881 0.0 10201528
14:00+23wnw810355 0.0 10181902
17:00+24w710355 0.0 10172059
20:00+20w512495 0.0 1017266
21 may, fri
fri2123:00+17w514530 0.0 1016256
02:00+15w512570 0.0 1016190
05:00+14w410630 0.0 1016153
08:00+21nw47450 0.0 1016331
11:00+27wnw57344 0.0 10161124
14:00+28nw453136 0.0 10152620
17:00+28wnw443276 0.0 10151881
20:00+22w49471 0.0 1015127